Regional Weather Roundup
Issued by NWS

Home | Current Version | Previous Version | Text Only | Print | Product List | Glossary On
Versions: 1 2 3 4 5 6 7 8 9 10 11 12 13 14 15 16 17 18 19 20 21 22 23 24 25 26 27
000
ASPQ40 PGUM 232212
RWRPQ
WEATHER ROUNDUP FOR THE MARIANAS AND MICRONESIA
NATIONAL WEATHER SERVICE TIYAN GU
800 AM CHST THU AUG 24 2017

GUZ001>004-232300-
MARIANA ISLANDS-

CITY           SKY/WX    TMP DP  RH WIND       PRES   REMARKS
GUAM AIRPORT   SUNNY     81  79  94 NE8       29.88R
ANDERSEN AFB   MOSUNNY   79  75  89 NE5       29.93R
ROTA AIRPORT   CLOUDY    77  73  88 VRB3      29.89R THUNDER
TINIAN AP      PTSUNNY   81  79  94 CALM      29.87R
SAIPAN AP      LGT RAIN  82  77  83 NE3       29.87R HX  91

$$

PMZ161-232300-
REPUBLIC OF PALAU-

CITY           SKY/WX    TMP DP  RH WIND       PRES   REMARKS
KOROR AP       PTSUNNY   81  77  89 CALM      29.84R
KOROR WSO      PTSUNNY   81  79  94 CALM      29.85R

$$

PMZ171>174-232300-
FEDERATED STATES OF MICRONESIA-

CITY           SKY/WX    TMP DP  RH WIND       PRES   REMARKS
YAP AIRPORT    PTSUNNY   79  77  94 VRB6      29.84R
CHUUK AP       MOSUNNY   86  79  79 VRB5      29.82R HX  99
POHNPEI AP     PTSUNNY   84  77  79 W6        29.84S HX  94
POHNPEI WSO    PTSUNNY   88  79  74 VRB3      29.86S HX 102
KOSRAE AP      PTSUNNY   86  79  79 VRB5      29.84R HX  99

$$

PMZ181-232300-
REPUBLIC OF THE MARSHALL ISLANDS-

CITY           SKY/WX    TMP DP  RH WIND       PRES   REMARKS
KWAJALEIN AP   SUNNY     86  73  66 S12       29.86S HX  93
MAJURO AP      NOT AVBL
MAJURO WSO     PTSUNNY   86  75  70 SE7       29.87S HX  95

$$





USA.gov is the U.S. government's official web portal to all federal, state and local government web resources and services.